Location: Kervinic
(48.4279°N, 4.7373°W)
Time: 06:21:25
(UTC+00:00)

SPOT 1/Viking Rocket - Pass Details

Date: 09 April 2020
Orbit: 776 x 795 km, 98.5° (Epoch: 29 May)

Event Time Altitude Azimuth Distance (km) Brightness Sun altitude
Exits shadow 21:30:46 51° 153° (SSE) 990 3.6 -22.4°
Maximum altitude 21:32:06 82° 74° (ENE) 808 3.5 -22.6°
Drops below altitude 10° 21:37:22 10° 347° (NNW) 2,377 6.8 -23.2°
Sets 21:39:42 0° 347° (NNW) 3,311 7.7 -23.5°
